DLH8DP EDDS-EDDK

Flight info

Callsign DLH8DP
Flight time 0h 35m
Altitude 22000
Route TAGIK4B TAGIK Z3 VATAK T840 GULKO GULKO1B
Aircraft A320/M-SDE3FGHIRWY/LB1

Departure

Time 2026-04-25 07:08
Airport Stuttgart Airport (EDDS)

Arrival

Time 2026-04-25 07:44
Airport Cologne Bonn Airport (EDDK)
Time Latitude Longitude Altitude Speed Heading
2026-04-25 06:43 48.68928 9.19579 1315 ft 0 kts 344°
2026-04-25 07:00 48.68926 9.19580 1314 ft 2 kts 344°
2026-04-25 07:00 48.68901 9.19591 1313 ft 4 kts 344°
2026-04-25 07:00 48.68880 9.19600 1311 ft 3 kts 346°
2026-04-25 07:00 48.68857 9.19600 1310 ft 4 kts 38°
2026-04-25 07:01 48.68843 9.19571 1310 ft 2 kts 73°
2026-04-25 07:01 48.68842 9.19568 1310 ft 1 kts 74°
2026-04-25 07:02 48.68847 9.19595 1310 ft 10 kts 73°
2026-04-25 07:03 48.68877 9.19755 1306 ft 13 kts 75°
2026-04-25 07:03 48.68859 9.19888 1300 ft 14 kts 160°
2026-04-25 07:03 48.68830 9.20010 1295 ft 17 kts 64°
2026-04-25 07:03 48.68867 9.20191 1291 ft 20 kts 74°
2026-04-25 07:04 48.68910 9.20413 1288 ft 24 kts 73°
2026-04-25 07:04 48.68956 9.20662 1279 ft 26 kts 74°
2026-04-25 07:04 48.69010 9.20941 1272 ft 29 kts 73°
2026-04-25 07:04 48.69052 9.21163 1269 ft 23 kts 73°
2026-04-25 07:05 48.69101 9.21417 1262 ft 27 kts 73°
2026-04-25 07:05 48.69156 9.21704 1259 ft 30 kts 74°
2026-04-25 07:05 48.69215 9.22015 1254 ft 32 kts 73°
2026-04-25 07:05 48.69278 9.22355 1239 ft 35 kts 73°
2026-04-25 07:06 48.69347 9.22711 1232 ft 36 kts 73°
2026-04-25 07:06 48.69398 9.22986 1226 ft 23 kts 74°
2026-04-25 07:06 48.69360 9.23152 1220 ft 19 kts 154°
2026-04-25 07:06 48.69216 9.23218 1213 ft 12 kts 165°
2026-04-25 07:07 48.69189 9.23217 1213 ft 3 kts 194°
2026-04-25 07:07 48.69178 9.23190 1213 ft 0 kts 251°
2026-04-25 07:08 48.69161 9.23111 1215 ft 30 kts 252°
2026-04-25 07:08 48.69029 9.22413 1230 ft 104 kts 255°
2026-04-25 07:08 48.68782 9.21079 1298 ft 153 kts 255°
2026-04-25 07:08 48.68493 9.19533 1935 ft 152 kts 254°
2026-04-25 07:09 48.68198 9.18010 2635 ft 154 kts 252°
2026-04-25 07:09 48.67882 9.16397 2979 ft 169 kts 252°
2026-04-25 07:09 48.67523 9.14590 3213 ft 187 kts 252°
2026-04-25 07:09 48.67140 9.12675 3636 ft 193 kts 252°
2026-04-25 07:10 48.67004 9.10665 4142 ft 195 kts 281°
2026-04-25 07:10 48.67647 9.08872 4629 ft 199 kts 311°
2026-04-25 07:10 48.68662 9.07297 4901 ft 221 kts 320°
2026-04-25 07:10 48.70074 9.06146 5216 ft 243 kts 340°
2026-04-25 07:11 48.71760 9.05316 5655 ft 264 kts 340°
2026-04-25 07:11 48.73526 9.04420 6437 ft 271 kts 340°
2026-04-25 07:11 48.75322 9.03503 7267 ft 274 kts 340°
2026-04-25 07:11 48.77142 9.02575 8123 ft 277 kts 340°
2026-04-25 07:12 48.78982 9.01639 8982 ft 281 kts 340°
2026-04-25 07:12 48.82708 8.99539 10497 ft 295 kts 337°
2026-04-25 07:12 48.84693 8.98352 10737 ft 319 kts 337°
2026-04-25 07:13 48.86789 8.97088 11170 ft 333 kts 337°
2026-04-25 07:13 48.88962 8.95784 11848 ft 338 kts 337°
2026-04-25 07:13 48.91161 8.94470 12590 ft 341 kts 337°
2026-04-25 07:13 48.93391 8.93150 13334 ft 345 kts 338°
2026-04-25 07:14 48.95727 8.92218 14044 ft 351 kts 349°
2026-04-25 07:14 48.98199 8.92050 14673 ft 359 kts
2026-04-25 07:14 49.00705 8.92389 15309 ft 363 kts
2026-04-25 07:14 49.03229 8.92733 15938 ft 366 kts
2026-04-25 07:15 49.05757 8.93075 16558 ft 370 kts
2026-04-25 07:15 49.08326 8.93429 17178 ft 373 kts
2026-04-25 07:15 49.10933 8.93788 17792 ft 377 kts
2026-04-25 07:15 49.13553 8.94146 18395 ft 380 kts
2026-04-25 07:16 49.16208 8.94511 18927 ft 384 kts
2026-04-25 07:16 49.18887 8.94880 19466 ft 388 kts
2026-04-25 07:16 49.21582 8.95255 20004 ft 391 kts
2026-04-25 07:16 49.24306 8.95634 20520 ft 395 kts
2026-04-25 07:17 49.27061 8.96017 21035 ft 399 kts
2026-04-25 07:17 49.29840 8.96410 21548 ft 403 kts
2026-04-25 07:17 49.32647 8.96809 21997 ft 407 kts
2026-04-25 07:17 49.35469 8.97204 22118 ft 407 kts
2026-04-25 07:18 49.38283 8.97599 22142 ft 406 kts
2026-04-25 07:18 49.41096 8.97992 22149 ft 405 kts
2026-04-25 07:18 49.43901 8.98386 22140 ft 404 kts
2026-04-25 07:18 49.46698 8.98781 22144 ft 404 kts
2026-04-25 07:19 49.49503 8.99175 22140 ft 404 kts
2026-04-25 07:19 49.52307 8.99565 22141 ft 404 kts
2026-04-25 07:19 49.55109 8.99948 22141 ft 404 kts
2026-04-25 07:19 49.57910 9.00227 22148 ft 402 kts 355°
2026-04-25 07:20 49.60675 8.99806 22142 ft 396 kts 345°
2026-04-25 07:20 49.63298 8.98616 22154 ft 391 kts 334°
2026-04-25 07:20 49.65711 8.96730 22153 ft 386 kts 323°
2026-04-25 07:20 49.67913 8.94381 22153 ft 384 kts 321°
2026-04-25 07:21 49.70069 8.92034 22153 ft 384 kts 321°
2026-04-25 07:21 49.72255 8.89651 22156 ft 384 kts 321°
2026-04-25 07:21 49.74438 8.87265 22155 ft 384 kts 321°
2026-04-25 07:21 49.76622 8.84874 22155 ft 384 kts 321°
2026-04-25 07:22 49.78807 8.82483 22157 ft 384 kts 321°
2026-04-25 07:22 49.80988 8.80097 22156 ft 384 kts 321°
2026-04-25 07:22 49.83173 8.77699 22155 ft 384 kts 321°
2026-04-25 07:22 49.85353 8.75298 22155 ft 384 kts 321°
2026-04-25 07:23 49.87531 8.72898 22175 ft 383 kts 320°
2026-04-25 07:23 49.89705 8.70511 22176 ft 383 kts 321°
2026-04-25 07:23 49.91881 8.68125 22181 ft 382 kts 321°
2026-04-25 07:23 49.94050 8.65747 22186 ft 382 kts 321°
2026-04-25 07:24 49.96219 8.63362 22185 ft 382 kts 320°
2026-04-25 07:24 49.98378 8.60984 22183 ft 381 kts 320°
2026-04-25 07:24 50.00542 8.58591 22180 ft 381 kts 320°
2026-04-25 07:24 50.02697 8.56212 22179 ft 381 kts 320°
2026-04-25 07:25 50.04909 8.53928 22175 ft 384 kts 327°
2026-04-25 07:25 50.07359 8.52226 22174 ft 388 kts 336°
2026-04-25 07:25 50.09918 8.50862 22173 ft 389 kts 336°
2026-04-25 07:25 50.12474 8.49498 22182 ft 388 kts 336°
2026-04-25 07:26 50.14994 8.48149 21916 ft 379 kts 336°
2026-04-25 07:26 50.17457 8.46828 21656 ft 370 kts 336°
2026-04-25 07:26 50.19867 8.45528 21400 ft 365 kts 336°
2026-04-25 07:26 50.22228 8.44250 21148 ft 362 kts 336°
2026-04-25 07:27 50.24605 8.42955 20893 ft 361 kts 336°
2026-04-25 07:27 50.26970 8.41665 20640 ft 359 kts 336°
2026-04-25 07:27 50.29268 8.40226 20391 ft 354 kts 329°
2026-04-25 07:27 50.31367 8.38261 20144 ft 350 kts 324°
2026-04-25 07:28 50.33420 8.36210 19901 ft 349 kts 324°
2026-04-25 07:28 50.35462 8.34172 19678 ft 348 kts 324°
2026-04-25 07:28 50.37482 8.32156 19354 ft 343 kts 325°
2026-04-25 07:28 50.39490 8.30150 18911 ft 341 kts 325°
2026-04-25 07:29 50.41488 8.28155 18446 ft 340 kts 326°
2026-04-25 07:29 50.43480 8.26165 17964 ft 339 kts 326°
2026-04-25 07:29 50.45467 8.24178 17505 ft 337 kts 326°
2026-04-25 07:29 50.47435 8.22202 17058 ft 335 kts 326°
2026-04-25 07:30 50.49396 8.20236 16618 ft 333 kts 326°
2026-04-25 07:30 50.51349 8.18277 16186 ft 332 kts 326°
2026-04-25 07:30 50.53287 8.16328 15754 ft 330 kts 326°
2026-04-25 07:30 50.55191 8.14407 15325 ft 329 kts 326°
2026-04-25 07:31 50.57117 8.12465 14895 ft 328 kts 326°
2026-04-25 07:31 50.59034 8.10534 14466 ft 327 kts 326°
2026-04-25 07:31 50.60945 8.08606 14028 ft 326 kts 326°
2026-04-25 07:31 50.62852 8.06680 13520 ft 325 kts 326°
2026-04-25 07:32 50.64750 8.04757 13066 ft 323 kts 326°
2026-04-25 07:32 50.66634 8.02843 12613 ft 321 kts 326°
2026-04-25 07:32 50.68508 8.00933 12164 ft 319 kts 326°
2026-04-25 07:32 50.70369 7.99036 11709 ft 318 kts 326°
2026-04-25 07:33 50.72204 7.97121 11260 ft 315 kts 321°
2026-04-25 07:33 50.73704 7.94637 10803 ft 312 kts 303°
2026-04-25 07:33 50.74620 7.91562 10392 ft 310 kts 285°
2026-04-25 07:33 50.74873 7.88239 10261 ft 299 kts 269°
2026-04-25 07:34 50.74632 7.85032 10153 ft 289 kts 263°
2026-04-25 07:34 50.74357 7.81939 9875 ft 282 kts 264°
2026-04-25 07:34 50.74081 7.78852 9442 ft 283 kts 263°
2026-04-25 07:34 50.73804 7.75792 9084 ft 280 kts 263°
2026-04-25 07:35 50.73533 7.72792 8683 ft 279 kts 263°
2026-04-25 07:35 50.73261 7.69763 8275 ft 278 kts 263°
2026-04-25 07:35 50.72988 7.66747 7879 ft 277 kts 263°
2026-04-25 07:35 50.72717 7.63751 7484 ft 275 kts 263°
2026-04-25 07:36 50.72446 7.60767 7087 ft 274 kts 263°
2026-04-25 07:36 50.72176 7.57790 6698 ft 273 kts 263°
2026-04-25 07:36 50.71905 7.54812 6120 ft 277 kts 263°
2026-04-25 07:36 50.71623 7.51741 5365 ft 288 kts 263°
2026-04-25 07:37 50.71206 7.48612 4646 ft 297 kts 248°
2026-04-25 07:37 50.69963 7.46082 4132 ft 287 kts 220°
2026-04-25 07:37 50.68963 7.44815 4075 ft 269 kts 225°
2026-04-25 07:37 50.68054 7.42488 4001 ft 237 kts 262°
2026-04-25 07:38 50.68262 7.40096 3952 ft 220 kts 303°
2026-04-25 07:38 50.69384 7.38609 3909 ft 215 kts 341°
2026-04-25 07:38 50.70810 7.37881 3857 ft 217 kts 333°
2026-04-25 07:38 50.71927 7.36304 3813 ft 215 kts 313°
2026-04-25 07:39 50.72948 7.34682 3675 ft 205 kts 318°
2026-04-25 07:39 50.73993 7.33176 3442 ft 201 kts 319°
2026-04-25 07:39 50.75012 7.31713 3209 ft 195 kts 319°
2026-04-25 07:39 50.76007 7.30287 2925 ft 189 kts 319°
2026-04-25 07:40 50.76965 7.28911 2674 ft 184 kts 319°
2026-04-25 07:40 50.77898 7.27568 2427 ft 180 kts 319°
2026-04-25 07:40 50.78811 7.26254 2187 ft 174 kts 318°
2026-04-25 07:40 50.79686 7.24993 1949 ft 164 kts 317°
2026-04-25 07:41 50.80491 7.23832 1728 ft 151 kts 317°
2026-04-25 07:41 50.81252 7.22734 1525 ft 146 kts 317°
2026-04-25 07:41 50.81986 7.21676 1315 ft 144 kts 317°
2026-04-25 07:41 50.82729 7.20599 1112 ft 146 kts 317°
2026-04-25 07:42 50.83473 7.19524 906 ft 144 kts 318°
2026-04-25 07:42 50.84212 7.18464 717 ft 143 kts 317°
2026-04-25 07:42 50.84950 7.17394 512 ft 144 kts 317°
2026-04-25 07:42 50.85690 7.16331 323 ft 142 kts 318°
2026-04-25 07:43 50.86345 7.15379 286 ft 113 kts 317°
2026-04-25 07:43 50.86864 7.14627 262 ft 93 kts 317°
2026-04-25 07:43 50.87309 7.13990 242 ft 80 kts 317°
2026-04-25 07:43 50.87687 7.13430 239 ft 69 kts 317°
2026-04-25 07:44 50.87847 7.13137 239 ft 19 kts 274°
2026-04-25 07:44 50.87816 7.12924 238 ft 22 kts 255°
2026-04-25 07:44 50.87787 7.12734 232 ft 14 kts 266°
2026-04-25 07:44 50.87842 7.12620 233 ft 14 kts 343°
2026-04-25 07:45 50.87940 7.12585 232 ft 15 kts 319°
2026-04-25 07:45 50.88022 7.12465 233 ft 13 kts 316°
2026-04-25 07:45 50.88006 7.12398 233 ft 6 kts 226°
2026-04-25 07:45 50.87980 7.12369 232 ft 0 kts 215°